Location: Berkeley
(37.8716°N, 122.2727°W)
Time: 03:16:17
(UTC-07:00)

N. Korean satellite - Pass Details

Date: 24 March 2019
Orbit: 457 x 508 km, 97.2° (Epoch: 24 April)

Event Time Altitude Azimuth Distance (km) Brightness Sun altitude
Rises 06:17:03 0° 34° (NE) 2,536 10.9 -10.6°
Reaches altitude 10° 06:20:01 10° 62° (ENE) 1,663 10.6 -10.0°
Maximum altitude 06:21:50 13° 93° (E) 1,467 10.4 -9.6°
Drops below altitude 10° 06:23:39 10° 124° (SE) 1,671 10.0 -9.3°
Sets 06:26:38 0° 152° (SSE) 2,558 10.5 -8.7°
